EJU71PA LIRN-LEIB

Flight info

Callsign EJU71PA
Flight time 1h 47m
Altitude 37000
Route EDOPA DCT TAGEL DCT BETOT DCT EKPOD DCT GOKMI DCT SUPUX DCT KUPIM DCT SUXER DCT RIPAL DCT MORSS
Aircraft A320/M-SDE3FGHIRWY/LB1

Departure

Time 2026-05-06 16:17
Airport Naples International Airport (LIRN)

Arrival

Time 2026-05-06 18:04
Airport Ibiza Airport (LEIB)
Time Latitude Longitude Altitude Speed Heading
2026-05-06 15:52 40.87878 14.28343 297 ft 0 kts 187°
2026-05-06 16:08 40.87900 14.28347 295 ft 4 kts 187°
2026-05-06 16:08 40.87921 14.28350 296 ft 4 kts 198°
2026-05-06 16:08 40.87939 14.28368 297 ft 4 kts 257°
2026-05-06 16:08 40.87939 14.28395 294 ft 1 kts 277°
2026-05-06 16:11 40.87939 14.28394 291 ft 1 kts 277°
2026-05-06 16:11 40.87944 14.28345 294 ft 9 kts 277°
2026-05-06 16:11 40.87953 14.28248 294 ft 11 kts 277°
2026-05-06 16:11 40.87963 14.28159 298 ft 9 kts 286°
2026-05-06 16:12 40.88026 14.28152 296 ft 15 kts 43°
2026-05-06 16:12 40.88067 14.28281 294 ft 15 kts 92°
2026-05-06 16:12 40.88053 14.28424 288 ft 16 kts 97°
2026-05-06 16:12 40.88040 14.28559 286 ft 15 kts 92°
2026-05-06 16:13 40.88087 14.28679 283 ft 17 kts 52°
2026-05-06 16:13 40.88172 14.28827 280 ft 21 kts 53°
2026-05-06 16:13 40.88264 14.28985 274 ft 23 kts 52°
2026-05-06 16:13 40.88360 14.29151 269 ft 23 kts 52°
2026-05-06 16:14 40.88465 14.29332 261 ft 26 kts 52°
2026-05-06 16:14 40.88578 14.29528 253 ft 25 kts 53°
2026-05-06 16:14 40.88672 14.29691 249 ft 22 kts 52°
2026-05-06 16:14 40.88768 14.29858 243 ft 23 kts 53°
2026-05-06 16:15 40.88864 14.30025 238 ft 22 kts 53°
2026-05-06 16:15 40.88942 14.30159 234 ft 12 kts 52°
2026-05-06 16:15 40.88998 14.30172 235 ft 9 kts 327°
2026-05-06 16:15 40.89056 14.30122 236 ft 9 kts 328°
2026-05-06 16:16 40.89076 14.30085 238 ft 3 kts 273°
2026-05-06 16:16 40.89028 14.29977 242 ft 40 kts 238°
2026-05-06 16:16 40.88750 14.29389 255 ft 108 kts 238°
2026-05-06 16:16 40.88258 14.28361 416 ft 146 kts 237°
2026-05-06 16:17 40.87657 14.27232 1023 ft 156 kts 223°
2026-05-06 16:17 40.86681 14.26570 1629 ft 169 kts 187°
2026-05-06 16:17 40.85472 14.26770 2022 ft 187 kts 166°
2026-05-06 16:17 40.84178 14.27135 2643 ft 189 kts 171°
2026-05-06 16:18 40.82879 14.27382 3317 ft 190 kts 174°
2026-05-06 16:18 40.81551 14.27577 3896 ft 193 kts 176°
2026-05-06 16:18 40.80211 14.27756 4530 ft 194 kts 176°
2026-05-06 16:18 40.78868 14.27936 5161 ft 194 kts 176°
2026-05-06 16:19 40.77527 14.28118 5769 ft 195 kts 176°
2026-05-06 16:19 40.76193 14.28289 6368 ft 195 kts 180°
2026-05-06 16:19 40.74857 14.27809 6602 ft 214 kts 219°
2026-05-06 16:19 40.74033 14.26096 6883 ft 238 kts 256°
2026-05-06 16:20 40.73763 14.23852 7317 ft 257 kts 259°
2026-05-06 16:20 40.73459 14.21449 7877 ft 271 kts 259°
2026-05-06 16:20 40.73155 14.18967 8647 ft 277 kts 259°
2026-05-06 16:20 40.72846 14.16438 9470 ft 281 kts 259°
2026-05-06 16:21 40.72531 14.13879 10247 ft 286 kts 258°
2026-05-06 16:21 40.72197 14.11199 10566 ft 308 kts 258°
2026-05-06 16:21 40.71838 14.08347 10794 ft 330 kts 258°
2026-05-06 16:21 40.71458 14.05312 11333 ft 339 kts 259°
2026-05-06 16:22 40.71073 14.02227 12053 ft 343 kts 259°
2026-05-06 16:22 40.70684 13.99116 12799 ft 345 kts 258°
2026-05-06 16:22 40.70292 13.95976 13509 ft 349 kts 258°
2026-05-06 16:22 40.69896 13.92806 14190 ft 352 kts 258°
2026-05-06 16:23 40.69499 13.89614 14857 ft 354 kts 258°
2026-05-06 16:23 40.69098 13.86403 15516 ft 356 kts 258°
2026-05-06 16:23 40.68692 13.83173 16148 ft 359 kts 258°
2026-05-06 16:23 40.68285 13.79959 16764 ft 362 kts 258°
2026-05-06 16:24 40.67866 13.76683 17406 ft 364 kts 258°
2026-05-06 16:24 40.67442 13.73386 18040 ft 366 kts 258°
2026-05-06 16:24 40.67014 13.70070 18612 ft 368 kts 257°
2026-05-06 16:24 40.66587 13.66739 19148 ft 370 kts 257°
2026-05-06 16:25 40.66159 13.63399 19686 ft 371 kts 257°
2026-05-06 16:25 40.65728 13.60041 20223 ft 372 kts 257°
2026-05-06 16:25 40.65295 13.56673 20766 ft 374 kts 257°
2026-05-06 16:25 40.64858 13.53289 21284 ft 375 kts 257°
2026-05-06 16:26 40.64425 13.49936 21810 ft 377 kts 257°
2026-05-06 16:26 40.63986 13.46530 22363 ft 378 kts 257°
2026-05-06 16:26 40.63543 13.43119 22894 ft 379 kts 256°
2026-05-06 16:26 40.63095 13.39694 23401 ft 381 kts 256°
2026-05-06 16:27 40.62642 13.36251 23827 ft 382 kts 256°
2026-05-06 16:27 40.62187 13.32798 24206 ft 385 kts 256°
2026-05-06 16:27 40.61728 13.29320 24572 ft 387 kts 256°
2026-05-06 16:27 40.61268 13.25818 24931 ft 389 kts 257°
2026-05-06 16:28 40.60804 13.22302 25279 ft 391 kts 257°
2026-05-06 16:28 40.60341 13.18813 25629 ft 393 kts 257°
2026-05-06 16:28 40.59870 13.15257 25963 ft 396 kts 257°
2026-05-06 16:28 40.59394 13.11679 26294 ft 398 kts 257°
2026-05-06 16:29 40.58912 13.08074 26564 ft 402 kts 257°
2026-05-06 16:29 40.58424 13.04433 26879 ft 405 kts 257°
2026-05-06 16:29 40.57932 13.00778 27225 ft 407 kts 257°
2026-05-06 16:29 40.57436 12.97105 27568 ft 409 kts 257°
2026-05-06 16:30 40.56945 12.93463 27891 ft 411 kts 257°
2026-05-06 16:30 40.56608 12.90958 28118 ft 412 kts 257°
2026-05-06 16:30 40.55942 12.86035 28521 ft 415 kts 257°
2026-05-06 16:30 40.55433 12.82289 28821 ft 416 kts 257°
2026-05-06 16:31 40.54922 12.78539 29114 ft 418 kts 257°
2026-05-06 16:31 40.54407 12.74769 29447 ft 419 kts 256°
2026-05-06 16:31 40.53894 12.70997 29824 ft 419 kts 256°
2026-05-06 16:31 40.53380 12.67224 30146 ft 419 kts 256°
2026-05-06 16:32 40.52866 12.63466 30534 ft 417 kts 256°
2026-05-06 16:32 40.52360 12.59778 30938 ft 414 kts 256°
2026-05-06 16:32 40.51848 12.56069 31354 ft 411 kts 256°
2026-05-06 16:32 40.51338 12.52386 31776 ft 408 kts 256°
2026-05-06 16:33 40.50830 12.48729 32197 ft 405 kts 256°
2026-05-06 16:33 40.50323 12.45103 32623 ft 402 kts 256°
2026-05-06 16:33 40.49818 12.41504 33037 ft 399 kts 256°
2026-05-06 16:34 40.48817 12.34396 33954 ft 392 kts 256°
2026-05-06 16:34 40.48327 12.30935 34315 ft 389 kts 256°
2026-05-06 16:34 40.47833 12.27447 34647 ft 388 kts 256°
2026-05-06 16:34 40.47346 12.23970 34893 ft 387 kts 256°
2026-05-06 16:35 40.46857 12.20488 35143 ft 387 kts 256°
2026-05-06 16:35 40.46366 12.17016 35403 ft 386 kts 256°
2026-05-06 16:35 40.45873 12.13553 35672 ft 385 kts 256°
2026-05-06 16:35 40.45381 12.10102 35937 ft 384 kts 256°
2026-05-06 16:36 40.44889 12.06656 36201 ft 383 kts 256°
2026-05-06 16:36 40.44398 12.03221 36460 ft 383 kts 256°
2026-05-06 16:36 40.43914 11.99836 36687 ft 382 kts 256°
2026-05-06 16:36 40.43421 11.96408 36904 ft 382 kts 256°
2026-05-06 16:37 40.42927 11.92977 36979 ft 383 kts 256°
2026-05-06 16:37 40.41937 11.86114 36978 ft 383 kts 256°
2026-05-06 16:38 40.40942 11.79249 36979 ft 383 kts 256°
2026-05-06 16:38 40.39939 11.72386 36973 ft 383 kts 256°
2026-05-06 16:39 40.38937 11.65571 36988 ft 384 kts 256°
2026-05-06 16:39 40.38739 11.58521 36980 ft 391 kts 268°
2026-05-06 16:40 40.38992 11.51394 36974 ft 391 kts 268°
2026-05-06 16:40 40.39226 11.44256 36974 ft 392 kts 268°
2026-05-06 16:41 40.39443 11.37169 36972 ft 392 kts 267°
2026-05-06 16:41 40.39658 11.30023 36993 ft 392 kts 267°
2026-05-06 16:42 40.39872 11.22871 36979 ft 393 kts 267°
2026-05-06 16:42 40.40089 11.15698 36970 ft 394 kts 268°
2026-05-06 16:43 40.40310 11.08565 36967 ft 394 kts 267°
2026-05-06 16:43 40.40519 11.01377 36969 ft 394 kts 267°
2026-05-06 16:44 40.40717 10.94185 36967 ft 395 kts 267°
2026-05-06 16:44 40.40923 10.86985 36972 ft 395 kts 267°
2026-05-06 16:45 40.41119 10.79830 36968 ft 395 kts 267°
2026-05-06 16:45 40.41297 10.72624 36965 ft 395 kts 267°
2026-05-06 16:46 40.41476 10.65423 36951 ft 395 kts 267°
2026-05-06 16:46 40.41656 10.58216 36954 ft 395 kts 267°
2026-05-06 16:47 40.41835 10.51010 36967 ft 396 kts 267°
2026-05-06 16:47 40.42015 10.43837 36957 ft 396 kts 267°
2026-05-06 16:48 40.42188 10.36604 36946 ft 397 kts 267°
2026-05-06 16:48 40.42349 10.29367 36952 ft 397 kts 267°
2026-05-06 16:49 40.42497 10.22122 36947 ft 397 kts 267°
2026-05-06 16:49 40.42646 10.14924 36956 ft 398 kts 267°
2026-05-06 16:50 40.42804 10.07659 36949 ft 399 kts 267°
2026-05-06 16:50 40.42959 10.00385 36949 ft 399 kts 267°
2026-05-06 16:51 40.43106 9.93101 36952 ft 399 kts 266°
2026-05-06 16:51 40.43239 9.85860 36956 ft 399 kts 266°
2026-05-06 16:52 40.43363 9.78570 36956 ft 400 kts 266°
2026-05-06 16:52 40.43493 9.71271 36948 ft 400 kts 266°
2026-05-06 16:53 40.43623 9.63964 36946 ft 401 kts 266°
2026-05-06 16:53 40.43742 9.56647 36945 ft 401 kts 266°
2026-05-06 16:54 40.43852 9.49379 36945 ft 401 kts 266°
2026-05-06 16:54 40.43966 9.42054 36965 ft 402 kts 266°
2026-05-06 16:55 40.44067 9.34720 36952 ft 402 kts 266°
2026-05-06 16:55 40.44172 9.27383 36945 ft 402 kts 266°
2026-05-06 16:56 40.44267 9.20094 36943 ft 402 kts 266°
2026-05-06 16:56 40.44311 9.12755 36942 ft 402 kts 265°
2026-05-06 16:57 40.44279 9.05421 36953 ft 402 kts 265°
2026-05-06 16:57 40.44244 8.98074 36946 ft 403 kts 265°
2026-05-06 16:58 40.44216 8.90718 36946 ft 403 kts 265°
2026-05-06 16:58 40.44188 8.83396 36948 ft 404 kts 265°
2026-05-06 16:59 40.44155 8.76026 36949 ft 404 kts 265°
2026-05-06 16:59 40.44117 8.68647 36963 ft 404 kts 265°
2026-05-06 17:00 40.44069 8.61268 36960 ft 405 kts 265°
2026-05-06 17:00 40.44020 8.53883 36959 ft 405 kts 265°
2026-05-06 17:01 40.43970 8.46542 36963 ft 405 kts 265°
2026-05-06 17:01 40.43915 8.39153 36964 ft 405 kts 265°
2026-05-06 17:02 40.43858 8.31767 36972 ft 404 kts 265°
2026-05-06 17:02 40.43790 8.24405 36965 ft 403 kts 265°
2026-05-06 17:03 40.43524 8.17129 36964 ft 401 kts 262°
2026-05-06 17:03 40.43060 8.09837 36958 ft 401 kts 262°
2026-05-06 17:04 40.42595 8.02544 36958 ft 401 kts 262°
2026-05-06 17:04 40.41866 7.95316 36972 ft 399 kts 258°
2026-05-06 17:05 40.40983 7.88220 36961 ft 399 kts 258°
2026-05-06 17:05 40.40088 7.81078 36956 ft 399 kts 258°
2026-05-06 17:06 40.39170 7.73895 36955 ft 399 kts 257°
2026-05-06 17:06 40.38243 7.66710 36952 ft 399 kts 257°
2026-05-06 17:07 40.37477 7.60744 36958 ft 399 kts 257°
2026-05-06 17:07 40.36406 7.52411 36974 ft 398 kts 258°
2026-05-06 17:08 40.35479 7.45257 36968 ft 398 kts 258°
2026-05-06 17:08 40.34547 7.38119 36961 ft 397 kts 258°
2026-05-06 17:09 40.33762 7.32192 36953 ft 397 kts 258°
2026-05-06 17:09 40.32669 7.23913 36947 ft 397 kts 258°
2026-05-06 17:10 40.31724 7.16793 36946 ft 397 kts 258°
2026-05-06 17:10 40.30775 7.09675 36944 ft 397 kts 258°
2026-05-06 17:11 40.29992 7.03759 36943 ft 397 kts 258°
2026-05-06 17:11 40.28884 6.95489 36944 ft 397 kts 258°
2026-05-06 17:12 40.27923 6.88374 36944 ft 397 kts 258°
2026-05-06 17:12 40.27124 6.82459 36934 ft 397 kts 258°
2026-05-06 17:13 40.26156 6.75342 36945 ft 397 kts 258°
2026-05-06 17:13 40.25029 6.67079 36948 ft 397 kts 258°
2026-05-06 17:14 40.24215 6.61121 36948 ft 397 kts 258°
2026-05-06 17:14 40.23238 6.54061 36952 ft 397 kts 258°
2026-05-06 17:15 40.22251 6.46950 36953 ft 397 kts 258°
2026-05-06 17:15 40.21097 6.38695 36978 ft 397 kts 258°
2026-05-06 17:16 40.20264 6.32752 36974 ft 396 kts 258°
2026-05-06 17:16 40.19273 6.25711 36969 ft 396 kts 258°
2026-05-06 17:17 40.18273 6.18628 36965 ft 396 kts 258°
2026-05-06 17:17 40.17268 6.11550 36962 ft 396 kts 258°
2026-05-06 17:18 40.16259 6.04482 36982 ft 395 kts 258°
2026-05-06 17:18 40.15252 5.97474 36976 ft 395 kts 258°
2026-05-06 17:19 40.14237 5.90428 36977 ft 394 kts 258°
2026-05-06 17:19 40.13228 5.83383 36970 ft 394 kts 258°
2026-05-06 17:20 40.12240 5.76387 36969 ft 394 kts 258°
2026-05-06 17:20 40.11252 5.69351 36961 ft 394 kts 258°
2026-05-06 17:21 40.10261 5.62322 36958 ft 393 kts 258°
2026-05-06 17:21 40.09263 5.55311 36957 ft 392 kts 258°
2026-05-06 17:22 40.08267 5.48359 36959 ft 392 kts 258°
2026-05-06 17:22 40.07258 5.41357 36957 ft 392 kts 258°
2026-05-06 17:23 40.06246 5.34356 36962 ft 393 kts 258°
2026-05-06 17:23 40.05229 5.27350 36978 ft 393 kts 258°
2026-05-06 17:24 40.04216 5.20403 36970 ft 392 kts 258°
2026-05-06 17:24 40.03195 5.13418 36967 ft 392 kts 258°
2026-05-06 17:25 40.02172 5.06435 36967 ft 392 kts 257°
2026-05-06 17:25 40.01141 4.99462 36965 ft 392 kts 257°
2026-05-06 17:26 40.00104 4.92489 36979 ft 392 kts 257°
2026-05-06 17:26 39.99073 4.85566 36970 ft 391 kts 257°
2026-05-06 17:27 39.98032 4.78608 36969 ft 391 kts 257°
2026-05-06 17:27 39.96831 4.71704 36966 ft 390 kts 254°
2026-05-06 17:28 39.95386 4.64889 36963 ft 390 kts 253°
2026-05-06 17:28 39.93932 4.58129 36932 ft 390 kts 254°
2026-05-06 17:29 39.92508 4.51309 36966 ft 390 kts 254°
2026-05-06 17:29 39.91105 4.44486 36973 ft 390 kts 254°
2026-05-06 17:30 39.89698 4.37668 36979 ft 390 kts 254°
2026-05-06 17:30 39.88292 4.30901 36984 ft 390 kts 254°
2026-05-06 17:31 39.86867 4.24095 36986 ft 390 kts 254°
2026-05-06 17:31 39.85152 4.17420 37004 ft 389 kts 249°
2026-05-06 17:32 39.83271 4.10820 36996 ft 389 kts 249°
2026-05-06 17:32 39.81381 4.04233 36986 ft 389 kts 249°
2026-05-06 17:33 39.79494 3.97698 36978 ft 388 kts 249°
2026-05-06 17:33 39.77596 3.91127 36972 ft 388 kts 249°
2026-05-06 17:34 39.75694 3.84551 36965 ft 388 kts 249°
2026-05-06 17:34 39.73787 3.77985 36933 ft 388 kts 249°
2026-05-06 17:35 39.71888 3.71467 36942 ft 389 kts 249°
2026-05-06 17:35 39.69972 3.64902 36946 ft 389 kts 249°
2026-05-06 17:36 39.67089 3.55060 36949 ft 389 kts 249°
2026-05-06 17:36 39.65162 3.48502 36950 ft 389 kts 249°
2026-05-06 17:37 39.63247 3.41991 36953 ft 389 kts 249°
2026-05-06 17:37 39.61319 3.35438 36954 ft 389 kts 249°
2026-05-06 17:38 39.59386 3.28892 36955 ft 389 kts 249°
2026-05-06 17:38 39.57448 3.22349 36955 ft 389 kts 249°
2026-05-06 17:39 39.55506 3.15810 36954 ft 389 kts 249°
2026-05-06 17:39 39.53571 3.09318 36928 ft 389 kts 249°
2026-05-06 17:40 39.51620 3.02788 36954 ft 389 kts 249°
2026-05-06 17:40 39.49671 2.96256 36954 ft 389 kts 249°
2026-05-06 17:41 39.47711 2.89725 36952 ft 389 kts 249°
2026-05-06 17:41 39.45758 2.83253 36952 ft 389 kts 249°
2026-05-06 17:42 39.43718 2.76771 36954 ft 389 kts 243°
2026-05-06 17:42 39.40543 2.71096 36952 ft 391 kts 233°
2026-05-06 17:43 39.37101 2.65654 36976 ft 391 kts 233°
2026-05-06 17:43 39.33673 2.60210 36358 ft 389 kts 233°
2026-05-06 17:44 39.31970 2.57504 35660 ft 388 kts 233°
2026-05-06 17:44 39.30289 2.54837 34972 ft 388 kts 233°
2026-05-06 17:44 39.28581 2.52134 34283 ft 389 kts 233°
2026-05-06 17:44 39.26873 2.49434 33545 ft 389 kts 233°
2026-05-06 17:45 39.25161 2.46724 32700 ft 390 kts 233°
2026-05-06 17:45 39.23444 2.44004 31821 ft 392 kts 233°
2026-05-06 17:45 39.21714 2.41268 30930 ft 395 kts 233°
2026-05-06 17:45 39.19977 2.38532 30233 ft 393 kts 233°
2026-05-06 17:46 39.18249 2.35822 29529 ft 390 kts 233°
2026-05-06 17:46 39.16559 2.33176 28840 ft 386 kts 233°
2026-05-06 17:46 39.14860 2.30519 28161 ft 382 kts 233°
2026-05-06 17:46 39.13178 2.27885 27503 ft 379 kts 232°
2026-05-06 17:47 39.11511 2.25273 26866 ft 376 kts 232°
2026-05-06 17:47 39.09857 2.22679 26183 ft 374 kts 232°
2026-05-06 17:47 39.08210 2.20097 25454 ft 374 kts 232°
2026-05-06 17:47 39.06558 2.17513 24756 ft 373 kts 232°
2026-05-06 17:48 39.04911 2.14940 24076 ft 372 kts 232°
2026-05-06 17:48 39.03265 2.12373 23399 ft 372 kts 232°
2026-05-06 17:48 39.01623 2.09815 22672 ft 370 kts 232°
2026-05-06 17:48 39.00011 2.07304 21989 ft 368 kts 232°
2026-05-06 17:49 38.98382 2.04770 21315 ft 367 kts 232°
2026-05-06 17:49 38.96757 2.02241 20648 ft 366 kts 232°
2026-05-06 17:49 38.95137 1.99716 20006 ft 366 kts 232°
2026-05-06 17:49 38.93519 1.97199 19358 ft 365 kts 232°
2026-05-06 17:50 38.91919 1.94670 18754 ft 364 kts 236°
2026-05-06 17:50 38.90659 1.91873 18164 ft 362 kts 247°
2026-05-06 17:50 38.89889 1.88808 17506 ft 360 kts 256°
2026-05-06 17:50 38.89262 1.85697 16844 ft 360 kts 255°
2026-05-06 17:51 38.88629 1.82587 16196 ft 360 kts 255°
2026-05-06 17:51 38.87999 1.79519 15569 ft 360 kts 255°
2026-05-06 17:51 38.87360 1.76411 14954 ft 360 kts 255°
2026-05-06 17:51 38.86722 1.73310 14350 ft 359 kts 255°
2026-05-06 17:52 38.86082 1.70216 13781 ft 358 kts 255°
2026-05-06 17:52 38.85442 1.67137 13152 ft 357 kts 255°
2026-05-06 17:52 38.84803 1.64070 12525 ft 355 kts 255°
2026-05-06 17:52 38.84167 1.61015 11917 ft 353 kts 255°
2026-05-06 17:53 38.83531 1.57981 11314 ft 351 kts 255°
2026-05-06 17:53 38.82879 1.54970 10724 ft 349 kts 255°
2026-05-06 17:53 38.82228 1.52030 10319 ft 342 kts 255°
2026-05-06 17:53 38.81585 1.49167 10197 ft 327 kts 255°
2026-05-06 17:54 38.80968 1.46426 10077 ft 313 kts 255°
2026-05-06 17:54 38.80371 1.43796 9945 ft 301 kts 253°
2026-05-06 17:54 38.79520 1.41395 9834 ft 291 kts 244°
2026-05-06 17:54 38.78579 1.39141 9615 ft 284 kts 244°
2026-05-06 17:55 38.77656 1.36914 9249 ft 282 kts 244°
2026-05-06 17:55 38.76742 1.34700 8855 ft 280 kts 244°
2026-05-06 17:55 38.75831 1.32495 8496 ft 279 kts 244°
2026-05-06 17:55 38.74927 1.30307 8100 ft 278 kts 243°
2026-05-06 17:56 38.74022 1.28123 7688 ft 277 kts 243°
2026-05-06 17:56 38.73117 1.25945 7286 ft 277 kts 243°
2026-05-06 17:56 38.72224 1.23802 6888 ft 276 kts 243°
2026-05-06 17:56 38.71321 1.21635 6482 ft 276 kts 242°
2026-05-06 17:57 38.70420 1.19473 6065 ft 275 kts 242°
2026-05-06 17:57 38.69531 1.17315 5757 ft 269 kts 245°
2026-05-06 17:57 38.69121 1.15053 5634 ft 257 kts 271°
2026-05-06 17:57 38.69499 1.12894 5506 ft 244 kts 297°
2026-05-06 17:58 38.70496 1.11219 5373 ft 233 kts 321°
2026-05-06 17:58 38.71893 1.10285 5113 ft 226 kts 352°
2026-05-06 17:58 38.73433 1.10412 4805 ft 223 kts 18°
2026-05-06 17:58 38.74884 1.11038 4492 ft 224 kts 23°
2026-05-06 17:59 38.76275 1.11874 4201 ft 217 kts 39°
2026-05-06 17:59 38.77273 1.13247 3933 ft 207 kts 62°
2026-05-06 17:59 38.77945 1.14838 3643 ft 200 kts 64°
2026-05-06 17:59 38.78593 1.16399 3407 ft 195 kts 63°
2026-05-06 18:00 38.79216 1.17897 3138 ft 188 kts 63°
2026-05-06 18:00 38.79824 1.19354 2883 ft 184 kts 64°
2026-05-06 18:00 38.80420 1.20784 2639 ft 180 kts 63°
2026-05-06 18:00 38.81002 1.22183 2413 ft 176 kts 63°
2026-05-06 18:01 38.81576 1.23563 2181 ft 175 kts 63°
2026-05-06 18:01 38.82146 1.24933 1948 ft 173 kts 63°
2026-05-06 18:01 38.82706 1.26279 1720 ft 168 kts 63°
2026-05-06 18:01 38.83231 1.27540 1509 ft 157 kts 63°
2026-05-06 18:02 38.83728 1.28736 1304 ft 145 kts 63°
2026-05-06 18:02 38.84182 1.29828 1114 ft 136 kts 64°
2026-05-06 18:02 38.84627 1.30902 925 ft 136 kts 62°
2026-05-06 18:02 38.85081 1.31970 735 ft 136 kts 62°
2026-05-06 18:03 38.85530 1.33024 525 ft 133 kts 62°
2026-05-06 18:03 38.85954 1.34086 353 ft 135 kts 64°
2026-05-06 18:03 38.86398 1.35147 183 ft 134 kts 64°
2026-05-06 18:03 38.86818 1.36183 13 ft 130 kts 63°
2026-05-06 18:04 38.87155 1.37003 7 ft 65 kts 61°
2026-05-06 18:04 38.87289 1.37317 6 ft 29 kts 59°
2026-05-06 18:04 38.87400 1.37455 6 ft 18 kts 34°
2026-05-06 18:04 38.87477 1.37520 7 ft 12 kts 33°
2026-05-06 18:05 38.87555 1.37568 8 ft 12 kts
2026-05-06 18:05 38.87630 1.37525 8 ft 11 kts 332°
2026-05-06 18:05 38.87691 1.37475 8 ft 10 kts 308°
2026-05-06 18:05 38.87685 1.37400 10 ft 8 kts 243°
2026-05-06 18:06 38.87646 1.37306 8 ft 13 kts 242°
2026-05-06 18:06 38.87605 1.37205 9 ft 12 kts 242°
2026-05-06 18:06 38.87569 1.37118 8 ft 8 kts 243°
2026-05-06 18:06 38.87594 1.37077 8 ft 6 kts 333°
2026-05-06 18:07 38.87622 1.37058 8 ft 2 kts 332°
2026-05-06 18:07 38.87623 1.37057 8 ft 0 kts 332°